This is the latest recevied weather packets stored in our database for station/object N6RDS-8. If no packets are shown the sender has not sent any weather packets the latest 10 day(s).
| Time | Temp. | Humidity | Pressure | Rain* | Wind** | Luminosity | Snow |
|---|---|---|---|---|---|---|---|
| 1777349933 | 13.33° C | 24% | 1018.4 hPa | 0 mm | - | 0 W/m² | - |
| 1777349630 | 13.89° C | 24% | 1018.5 hPa | 0 mm | - | 0 W/m² | - |
| 1777349328 | 15° C | 23% | 1018.2 hPa | 0 mm | - | 0 W/m² | - |
| 1777349027 | 15° C | 23% | 1018.1 hPa | 0 mm | - | 0 W/m² | - |
| 1777348723 | 15° C | 23% | 1018 hPa | 0 mm | - | 0 W/m² | - |
| 1777348421 | 15.56° C | 22% | 1018.2 hPa | 0 mm | - | 0 W/m² | - |
| 1777348119 | 16.11° C | 22% | 1018 hPa | 0 mm | - | 0 W/m² | - |
| 1777347817 | 16.67° C | 21% | 1017.9 hPa | 0 mm | - | 0 W/m² | - |
| 1777347515 | 17.78° C | 21% | 1017.9 hPa | 0 mm | - | 0 W/m² | - |
| 1777347214 | 18.33° C | 20% | 1017.7 hPa | 0 mm | - | 0 W/m² | - |
| 1777346911 | 18.33° C | 20% | 1017.8 hPa | 0 mm | - | 0 W/m² | - |
| 1777346608 | 18.89° C | 20% | 1017.7 hPa | 0 mm | - | 0 W/m² | - |
| 1777346304 | 18.89° C | 20% | 1017.6 hPa | 0 mm | - | 0 W/m² | - |
| 1777346002 | 18.89° C | 19% | 1017.5 hPa | 0 mm | - | 0 W/m² | - |
| 1777345699 | 19.44° C | 19% | 1017.5 hPa | 0 mm | - | 0 W/m² | - |
| 1777345395 | 19.44° C | 19% | 1017.2 hPa | 0 mm | - | 0 W/m² | - |
| 1777345092 | 19.44° C | 19% | 1017.1 hPa | 0 mm | - | 0 W/m² | - |
| 1777344788 | 20° C | 19% | 1017 hPa | 0 mm | - | 0 W/m² | - |
| 1777344484 | 20° C | 19% | 1016.8 hPa | 0 mm | - | 0 W/m² | - |
| 1777344183 | 20° C | 18% | 1016.8 hPa | 0 mm | - | 0 W/m² | - |
| 1777343879 | 20.56° C | 18% | 1016.7 hPa | 0 mm | - | 0 W/m² | - |
| 1777343576 | 20.56° C | 18% | 1016.8 hPa | 0 mm | - | 0 W/m² | - |
| 1777343274 | 20.56° C | 18% | 1016.7 hPa | 0 mm | - | 0 W/m² | - |
| 1777342972 | 21.11° C | 18% | 1016.5 hPa | 0 mm | - | 0 W/m² | - |
| 1777342668 | 21.11° C | 17% | 1016.5 hPa | 0 mm | - | 0 W/m² | - |
* Rain latest hour (hover to see other rain measurements)
** Current wind speed in m/s (hover to see current wind gust speed)